Date,TemperatureHighF,TemperatureAvgF,TemperatureLowF,DewpointHighF,DewpointAvgF,DewpointLowF,HumidityHigh,HumidityAvg,HumidityLow,PressureMaxIn,PressureMinIn,WindSpeedMaxMPH,WindSpeedAvgMPH,GustSpeedMaxMPH,PrecipitationSumIn
2013-1-16,74.7,72.8,71.8,67.9,64.1,61.5,87,75,64,29.92,29.89,2,0,3,0.00
2013-1-17,89.1,73.0,69.6,73.3,70.1,62.0,98,92,42,29.92,29.77,8,2,13,0.00
2013-1-18,118.4,79.7,70.3,76.0,67.3,41.6,98,76,9,29.71,29.39,11,2,27,0.17
2013-1-19,74.1,73.7,73.4,66.3,65.6,64.6,77,76,74,29.77,29.74,10,9,22,0.00
2013-1-20,67.8,67.7,67.5,67.2,67.1,66.9,98,98,97,30.01,30.01,4,3,6,0.00
2013-1-24,71.8,71.3,70.7,71.2,70.6,70.1,98,98,97,29.92,29.89,1,0,2,0.00
2013-1-25,88.7,73.2,67.8,79.0,70.3,65.4,98,92,51,29.89,29.74,10,2,19,0.00
2013-1-26,89.1,78.4,71.6,76.0,70.2,61.5,98,79,41,29.89,29.80,11,3,17,0.00
2013-1-27,75.7,73.3,69.6,73.3,71.2,69.0,98,94,86,29.77,29.71,6,2,8,1.62
2013-1-28,71.6,70.3,67.6,71.0,69.7,67.1,98,98,98,29.74,29.56,13,4,30,4.23
2013-1-29,93.2,72.1,69.3,73.3,70.0,60.8,98,94,43,29.71,29.42,11,4,22,0.29
2013-1-30,80.6,75.5,69.3,71.3,66.1,61.5,98,73,59,29.95,29.86,6,4,12,0.09
2013-1-31,95.2,85.1,76.6,71.4,65.6,61.8,83,53,37,29.86,29.62,0,0,0,0.00
2013-2-1,91.6,76.2,65.5,74.4,67.7,60.9,98,78,38,29.71,29.59,10,0,18,0.87
2013-2-2,70.2,63.5,61.3,66.2,61.6,52.0,98,94,61,29.95,29.62,10,6,24,0.71
2013-2-3,76.8,63.9,60.8,60.4,51.8,47.2,74,66,43,30.07,29.89,12,4,24,0.00
2013-2-4,82.8,75.2,66.6,65.1,57.3,47.0,91,56,31,30.24,30.12,9,6,17,0.00
2013-2-5,84.7,79.0,67.1,67.9,58.8,52.7,94,52,37,30.27,30.15,9,5,15,0.00
2013-2-6,86.2,80.3,70.7,72.6,57.9,50.1,98,49,33,30.18,30.07,8,5,15,0.00
2013-2-7,89.8,82.1,70.7,68.6,57.1,51.5,93,44,30,30.12,29.98,9,5,19,0.00
2013-2-8,82.9,67.8,61.2,68.9,61.6,58.8,98,83,47,30.09,30.01,5,1,8,0.00
2013-2-9,95.0,72.3,64.2,71.9,65.5,55.4,98,82,28,30.07,29.86,8,2,17,0.00
2013-2-10,93.0,75.0,69.6,74.6,70.0,60.1,98,87,38,30.07,29.86,11,2,24,0.00
2013-2-11,71.6,69.9,67.6,68.7,67.9,66.7,98,93,88,30.09,29.98,7,5,15,0.21
2013-2-12,81.7,74.1,69.4,72.3,67.2,59.7,98,80,60,30.18,30.01,9,5,16,0.46
2013-2-13,84.4,72.8,64.8,68.8,61.5,51.6,98,73,35,30.24,30.12,7,2,14,0.04
2013-2-14,86.0,78.6,62.8,70.5,60.4,52.3,98,58,34,30.21,30.09,8,4,13,0.00
2013-2-15,86.4,70.9,64.9,70.9,65.1,56.8,98,84,41,30.21,30.09,6,2,10,0.24
2013-2-16,82.4,66.0,62.2,76.0,64.4,60.9,98,95,50,30.18,30.12,7,1,10,0.00
2013-2-17,84.2,70.4,62.1,73.9,64.0,56.0,98,83,42,30.18,30.09,8,2,15,0.12
2013-2-18,88.3,80.5,67.5,74.8,62.8,54.2,98,58,38,30.12,30.03,8,4,17,0.00
2013-2-19,88.7,73.9,63.5,76.2,65.8,61.6,98,80,44,30.01,29.95,7,2,11,0.00
2013-2-20,86.9,81.5,69.8,76.8,69.2,64.6,98,68,51,30.01,29.95,11,6,18,0.33
2013-2-21,84.9,72.6,67.3,74.2,68.6,65.6,98,89,55,30.07,29.95,9,3,18,0.13
2013-2-22,80.6,74.4,65.5,73.2,66.4,60.1,98,77,56,30.07,29.98,12,7,25,0.54
2013-2-23,75.4,70.5,67.8,74.8,69.9,67.2,98,98,98,29.98,29.62,13,9,28,2.95
2013-2-24,94.5,74.0,68.9,79.7,72.1,68.3,98,94,48,29.95,29.68,10,2,18,0.00
2013-2-25,90.0,84.9,74.7,77.3,71.1,67.8,97,65,50,30.01,29.89,9,5,14,0.00
2013-2-26,86.0,79.8,71.8,73.0,67.6,61.6,98,68,49,30.03,29.92,8,5,13,0.00
2013-2-27,91.2,82.2,71.4,68.3,60.9,53.7,88,52,31,30.01,29.83,8,5,16,0.00
2013-2-28,94.1,84.6,65.7,73.2,63.3,57.9,98,52,32,29.86,29.71,11,5,20,0.87
2013-3-1,66.9,65.9,65.1,66.3,65.4,64.5,98,98,98,29.95,29.83,13,9,22,3.93
2013-3-3,68.7,66.9,66.0,68.1,66.0,65.2,98,97,96,30.07,30.07,9,8,17,0.00
2013-3-4,84.2,78.4,69.8,65.3,57.0,52.0,81,49,36,30.18,30.09,10,6,18,0.00
2013-3-5,83.8,78.8,68.9,65.5,57.0,50.6,82,48,34,30.18,30.09,10,6,19,0.00
2013-3-6,86.7,81.4,69.8,72.6,57.8,50.1,94,47,31,30.15,30.07,8,4,14,0.00
2013-3-7,87.1,81.2,66.0,73.2,60.3,54.0,98,52,36,30.15,30.03,8,5,14,0.00
2013-3-8,86.4,80.7,64.0,73.7,60.1,52.6,98,52,34,30.21,30.09,9,4,13,0.00
2013-3-9,83.5,71.1,68.4,71.2,66.0,51.2,95,86,35,30.18,30.09,9,1,13,0.00
2013-3-10,87.3,68.7,62.6,75.2,63.4,54.5,98,86,35,30.12,30.03,8,1,15,0.00
2013-3-11,87.3,73.0,64.4,78.7,64.2,55.8,98,79,37,30.15,30.03,7,2,14,0.00
2013-3-12,86.0,73.5,64.4,76.3,64.0,53.1,98,77,36,30.15,30.07,7,1,10,0.00
2013-3-13,90.1,80.6,63.7,74.4,61.5,53.7,98,55,30,30.01,29.86,8,4,15,0.00
2013-3-14,87.3,79.2,68.0,72.4,61.8,51.3,98,59,31,29.95,29.86,7,4,14,0.00
2013-3-15,71.8,70.5,69.6,71.2,69.9,68.9,98,98,96,30.01,29.89,6,4,13,0.17
2013-3-16,93.9,75.9,65.5,71.7,68.2,63.1,98,81,40,29.98,29.71,8,2,13,0.04
2013-3-17,75.6,70.8,66.4,70.8,64.6,42.8,98,84,34,30.12,29.68,12,4,26,0.00
2013-3-18,77.4,71.4,62.2,56.3,50.9,47.0,80,49,36,30.24,30.15,8,5,15,0.05
2013-3-19,80.1,73.3,60.1,70.6,58.1,49.3,98,61,36,30.30,30.21,8,3,14,0.00
2013-3-20,86.0,77.2,61.0,72.7,60.2,52.8,98,59,38,30.33,30.18,7,4,13,0.00
2013-3-21,90.5,79.6,63.1,67.6,55.7,49.4,98,47,26,30.18,29.98,7,4,13,0.00
2013-3-22,92.8,85.0,75.9,62.2,59.5,55.8,60,43,32,30.01,29.89,14,10,23,0.00
2013-3-23,96.4,78.1,72.9,69.6,58.3,54.1,89,51,28,30.07,29.92,12,4,16,0.00
2013-3-24,97.5,72.3,67.5,75.5,68.3,56.4,98,91,29,30.03,29.86,5,0,10,0.00
2013-3-25,87.1,79.6,64.8,75.0,65.4,56.6,98,64,47,30.12,30.01,8,4,15,0.00
2013-3-26,91.6,81.6,70.9,77.3,70.0,62.8,98,71,42,30.09,29.95,8,3,13,0.00
2013-3-27,97.0,85.3,67.6,77.5,66.7,60.2,98,57,31,30.09,29.98,8,4,12,0.00
2013-3-28,95.9,76.3,66.4,71.4,66.0,55.4,98,76,29,30.07,29.95,8,3,13,0.00
2013-4-1,64.4,63.0,61.9,63.8,62.4,61.3,98,98,98,30.03,30.03,0,0,1,0.00
2013-4-2,86.4,69.0,58.6,71.0,58.3,46.3,98,76,29,30.07,29.98,6,1,9,0.00
2013-4-3,67.6,64.3,61.5,67.1,63.7,61.0,98,98,98,30.18,30.03,7,1,11,2.54
2013-4-4,73.6,64.5,60.1,68.9,62.2,56.6,98,93,63,30.45,30.27,8,2,17,1.29
2013-4-5,80.2,69.0,60.4,69.0,58.8,48.0,98,76,35,30.45,30.36,7,2,13,0.00
2013-4-6,76.3,63.3,59.7,69.4,61.4,57.0,98,94,56,30.42,30.27,8,1,15,0.00
2013-4-7,79.9,60.6,56.1,71.2,58.2,52.3,98,93,44,30.30,30.18,7,0,13,0.00
2013-4-8,82.4,75.5,61.7,69.9,60.1,52.5,98,61,40,30.33,30.21,7,3,12,0.00
2013-4-9,81.1,71.6,59.5,70.1,62.5,58.8,98,75,53,30.36,30.24,7,2,12,0.04
2013-4-10,80.8,75.1,59.9,72.1,61.1,54.6,98,65,44,30.30,30.18,7,3,11,0.00
2013-4-11,85.6,64.1,53.6,70.0,58.1,53.0,98,85,36,30.27,30.18,4,1,6,0.00
2013-4-12,82.9,77.8,63.0,72.1,59.7,52.8,98,56,39,30.33,30.21,7,4,12,0.00
2013-4-13,79.9,62.2,56.1,70.4,59.7,55.6,98,93,50,30.24,30.01,6,1,13,0.00
2013-4-14,85.1,64.8,56.7,74.1,60.5,54.5,98,89,40,30.03,29.86,5,0,8,0.00
2013-4-15,93.2,64.2,58.1,69.2,60.4,53.6,98,91,29,29.92,29.74,6,0,12,0.00
2013-4-16,75.9,67.3,63.3,69.6,63.9,56.8,98,90,55,30.01,29.86,6,3,13,0.12
2013-4-17,79.2,63.1,57.6,66.0,60.6,54.1,98,93,44,30.07,29.95,7,2,15,0.21
2013-4-18,80.4,63.9,58.3,70.7,61.1,55.2,98,92,45,30.03,29.89,6,1,10,0.00
2013-4-19,71.1,61.5,58.5,61.7,52.8,35.8,98,78,32,30.01,29.89,8,3,17,0.00
2013-4-20,63.3,58.8,56.8,62.6,50.8,36.1,98,78,41,30.07,29.86,8,4,17,1.45
2013-4-21,76.5,58.8,54.7,57.4,54.1,43.0,98,87,33,30.07,29.92,6,3,12,0.00
2013-4-22,83.1,59.8,56.5,64.4,56.9,46.0,98,93,29,29.98,29.77,5,1,10,0.00
2013-4-23,82.6,56.6,49.3,66.2,52.0,38.5,98,90,23,30.07,29.89,6,0,10,0.00
2013-4-24,56.8,54.2,52.2,56.3,53.6,51.6,98,98,98,30.07,30.03,0,0,2,0.00
2013-4-25,80.4,65.4,52.0,63.8,51.8,43.3,98,68,30,30.24,30.15,4,1,7,0.00
2013-4-26,83.7,55.8,47.8,63.1,50.6,45.4,98,87,28,30.30,30.12,4,1,8,0.00
2013-4-27,80.8,60.4,50.4,67.6,53.7,47.1,98,84,32,30.24,30.09,5,1,8,0.00
2013-4-28,85.8,64.7,56.1,61.3,51.8,42.5,96,68,23,30.18,30.07,8,2,10,0.00
2013-4-29,84.9,61.2,52.9,66.1,52.6,43.0,98,77,26,30.27,30.12,7,1,16,0.00
2013-4-30,78.8,68.7,63.5,72.1,66.1,62.1,98,92,63,30.30,30.21,7,2,13,0.00
2013-5-1,89.6,80.4,64.4,70.5,60.4,53.1,98,55,31,30.12,29.92,7,4,14,0.00
2013-5-2,71.6,67.2,57.9,66.0,47.5,41.2,94,51,34,30.36,30.07,8,6,16,0.00
2013-5-3,77.4,65.3,57.0,57.4,51.3,42.6,98,69,31,30.39,30.18,6,3,10,0.00
2013-5-4,84.2,61.6,53.4,56.6,48.3,37.2,98,64,20,30.30,30.03,11,4,24,0.00
2013-5-5,73.4,63.0,56.7,49.2,44.5,41.1,76,52,35,30.33,30.21,7,4,15,0.00
2013-5-6,70.7,65.3,57.7,59.3,50.6,46.2,98,61,46,30.36,30.30,7,4,17,0.09
2013-5-7,75.7,65.0,55.0,63.5,56.2,49.0,98,77,41,30.45,30.33,6,2,10,0.00
2013-5-8,77.0,69.0,55.9,68.7,61.0,49.9,98,78,43,30.51,30.42,5,2,9,0.00
2013-5-9,82.6,74.3,56.5,67.8,56.3,50.6,98,57,40,30.51,30.39,4,2,7,0.00
2013-5-10,61.9,58.2,56.1,59.6,57.4,55.6,98,97,90,30.48,30.45,0,0,2,0.00
2013-5-11,73.2,62.7,56.7,72.3,60.7,56.1,98,94,73,30.48,30.36,5,1,10,0.04
2013-5-12,61.5,55.0,51.6,61.0,54.5,51.1,98,98,98,30.42,30.24,1,0,3,0.00
2013-5-13,68.4,62.9,32.0,62.6,58.4,53.0,98,83,58,30.01,0.00,2,0,4,0.00
2013-5-14,72.7,62.1,58.5,63.1,60.0,52.4,98,94,51,29.98,29.89,6,2,9,0.08
2013-5-15,61.7,60.1,59.4,45.4,44.2,42.7,58,56,51,29.95,29.92,6,4,8,0.00
2013-5-16,70.7,62.0,59.4,46.9,44.4,42.6,60,53,39,29.95,29.89,13,8,20,0.00
2013-5-17,70.3,58.7,54.0,51.7,45.8,38.3,91,65,32,29.98,29.89,8,6,13,0.00
2013-5-18,73.8,53.0,45.7,48.4,42.1,32.6,97,70,23,30.07,29.92,6,2,10,0.00
2013-5-19,68.0,51.4,42.6,54.9,41.7,34.0,98,75,29,30.15,30.03,7,2,11,0.00
2013-5-20,72.0,53.3,41.5,50.4,40.6,31.8,98,70,24,30.18,30.03,6,2,12,0.00
2013-5-21,77.7,66.0,49.3,48.1,41.7,35.3,87,44,23,30.09,29.95,8,5,12,0.00
2013-5-22,59.0,50.8,48.7,56.4,50.1,48.2,98,98,85,30.07,29.98,2,0,4,0.00
2013-5-23,63.7,56.0,53.1,60.8,55.3,50.7,98,98,63,30.03,29.86,10,4,15,1.37
2013-5-24,71.6,66.8,32.0,59.7,49.3,44.9,98,55,41,30.18,0.00,12,8,27,0.79
2013-5-25,71.4,58.9,52.5,58.7,55.0,49.7,98,89,49,30.30,30.15,6,3,10,0.12
2013-5-26,49.1,48.3,47.7,48.6,47.8,47.1,98,98,98,30.33,30.27,0,0,0,0.00
2013-5-27,57.7,48.3,44.1,57.2,47.8,43.5,98,98,98,30.48,30.30,3,0,6,0.09
2013-5-28,69.3,56.8,53.6,61.5,55.8,53.0,98,97,65,30.54,30.45,5,0,10,0.21
2013-5-30,70.0,60.3,32.0,59.8,56.3,53.5,98,85,59,30.42,0.00,3,1,6,0.00
2013-5-31,78.6,70.9,48.7,68.7,53.9,48.2,98,59,39,30.42,30.27,6,2,8,0.00
2013-6-1,70.2,58.4,54.9,61.7,56.4,52.6,98,94,54,30.30,30.01,6,1,12,0.00
2013-6-2,62.2,59.2,54.0,60.0,57.9,48.1,98,96,73,30.07,29.71,9,4,25,0.78
2013-6-3,69.1,57.5,53.8,54.1,42.5,37.3,98,59,35,30.21,30.03,7,5,17,0.00
2013-6-4,71.4,53.0,44.1,55.0,47.7,43.5,98,85,39,30.36,30.21,4,1,8,0.00
2013-6-5,75.2,63.5,49.1,62.9,53.9,48.0,98,74,43,30.39,30.24,6,2,9,0.00
2013-6-6,67.1,58.3,53.2,57.0,53.1,46.7,98,85,50,30.30,30.24,9,2,13,0.00
2013-6-7,75.6,67.7,57.7,61.9,59.6,53.9,93,77,52,30.30,30.09,10,7,21,0.00
2013-6-8,67.8,59.5,52.3,63.5,56.5,45.0,98,91,47,30.51,30.30,6,2,15,0.00
2013-6-9,68.4,53.4,47.1,64.2,52.2,46.6,98,96,64,30.45,30.27,3,0,6,0.00
2013-6-10,70.7,54.8,47.7,64.0,52.6,47.1,98,93,58,30.27,30.12,6,1,10,0.00
2013-6-11,77.0,69.5,50.2,66.3,53.0,46.6,98,61,37,30.21,30.09,4,2,6,0.00
2013-6-12,60.1,57.9,32.0,59.5,57.7,51.1,98,96,98,29.89,0.00,7,4,10,0.24
2013-6-13,69.8,58.3,50.2,59.6,53.8,47.2,98,87,46,29.86,29.74,12,5,15,0.00
2013-6-14,68.4,63.4,55.8,54.7,48.0,43.4,92,59,42,29.80,29.71,13,9,22,0.00
2013-6-15,66.4,57.8,55.0,52.9,48.3,38.5,92,72,37,29.98,29.77,9,5,13,0.00
2013-6-16,68.4,56.4,47.3,48.3,39.6,35.7,98,55,34,30.03,29.92,6,3,14,0.00
2013-6-17,61.3,56.9,47.1,51.4,47.6,44.1,98,72,53,29.92,29.83,4,2,7,0.00
2013-6-18,69.3,53.6,42.1,58.3,44.1,37.3,98,76,33,30.07,29.92,6,2,11,0.00
2013-6-19,64.8,57.9,50.0,55.2,48.6,42.1,98,73,47,30.27,30.07,8,5,15,0.38
2013-6-20,68.7,57.9,52.9,55.1,48.7,41.7,98,73,43,30.33,30.18,8,3,11,0.00
2013-6-21,65.7,55.6,47.7,55.7,48.9,42.3,98,80,47,30.24,30.15,5,2,9,0.00
2013-6-22,66.9,49.6,44.8,54.8,47.6,42.9,98,94,46,30.33,30.21,6,2,15,0.00
2013-6-23,64.8,55.9,53.6,58.8,54.6,53.0,98,96,75,30.42,30.33,6,2,11,1.03
2013-6-24,53.8,52.9,49.3,53.2,52.4,48.7,98,98,95,30.30,30.03,4,2,8,0.05
2013-6-25,66.4,52.2,43.9,53.6,48.7,43.4,98,89,46,30.09,30.01,6,2,8,0.00
2013-6-26,67.8,54.6,44.4,62.3,52.7,43.9,98,94,63,30.15,30.03,11,3,23,0.08
2013-6-27,62.4,59.1,56.8,61.0,58.2,56.3,98,97,86,30.24,30.15,6,2,13,0.75
2013-6-28,57.4,56.3,32.0,56.8,56.1,55.2,98,96,98,30.27,0.00,2,0,3,0.21
2013-6-29,63.9,58.2,55.6,62.6,57.2,55.0,98,97,84,30.30,30.21,7,2,12,0.21
2013-6-30,55.6,54.4,32.0,55.0,54.8,54.1,98,94,98,30.27,0.00,3,2,7,0.95
2013-7-1,66.2,55.8,51.8,63.6,55.1,51.1,98,97,81,30.27,30.18,6,2,9,0.17
2013-7-2,67.5,54.3,49.8,58.1,50.8,45.2,98,90,48,30.33,30.21,5,2,10,0.00
2013-7-3,71.1,48.8,42.4,60.2,46.5,41.9,98,94,38,30.33,30.21,4,0,8,0.00
2013-7-4,72.7,54.9,49.1,53.8,49.3,44.3,98,85,37,30.18,29.95,16,4,27,0.00
2013-7-5,74.5,59.8,50.9,56.6,48.5,27.0,98,72,23,30.09,29.86,12,5,17,0.00
2013-7-6,65.8,51.4,42.6,39.9,30.8,26.7,67,46,27,30.27,30.09,8,4,12,0.00
2013-7-7,71.4,45.1,37.8,53.4,37.9,29.6,98,81,24,30.45,30.27,4,1,6,0.00
2013-7-19,60.4,59.0,58.6,59.9,58.5,58.1,98,98,98,29.95,29.95,4,0,6,0.04
2013-7-20,71.8,58.8,55.2,60.6,57.1,38.8,98,95,32,29.95,29.74,10,3,21,0.00
2013-7-21,63.9,52.5,42.4,47.0,34.9,25.5,97,54,25,30.12,29.98,13,4,19,0.00
2013-7-22,61.3,54.1,32.0,33.8,30.9,28.6,56,40,29,30.18,30.09,6,3,12,0.00
2013-7-23,70.0,60.2,42.1,40.9,35.1,30.0,81,41,25,30.24,30.09,7,5,12,0.00
2013-7-24,66.4,60.1,52.9,43.8,40.6,37.6,57,49,40,30.42,30.33,10,6,26,0.00
2013-7-25,61.5,51.3,32.0,48.1,44.2,37.6,98,74,41,30.42,0.00,2,1,3,0.00
2013-7-26,61.2,46.6,44.8,48.9,45.2,40.0,98,95,46,30.42,30.33,2,0,3,0.00
2013-7-27,68.0,47.1,41.4,58.7,45.1,40.8,98,94,49,30.54,30.39,4,0,6,0.00
2013-7-28,67.8,50.7,43.9,59.5,48.1,43.4,98,92,55,30.51,30.33,4,1,6,0.00
2013-7-29,76.6,60.6,46.8,64.5,49.1,42.0,98,73,31,30.39,30.21,7,2,11,0.00
2013-7-30,72.0,62.9,32.0,58.0,50.2,40.6,96,65,33,30.18,0.00,7,2,18,0.00
2013-7-31,69.6,63.4,56.5,60.6,50.6,42.9,98,66,43,30.30,30.24,9,5,20,0.41
2013-8-1,72.1,65.0,50.0,54.3,44.6,39.8,98,50,34,30.30,30.15,6,4,10,0.00
2013-8-2,69.6,56.5,32.0,48.2,39.7,31.0,77,55,26,30.03,29.98,5,1,10,0.00
2013-8-3,72.0,55.3,47.5,47.5,37.1,28.8,88,53,22,30.09,29.95,8,4,13,0.00
2013-8-4,68.9,55.6,48.9,38.3,35.3,27.3,62,47,22,30.09,29.92,11,7,16,0.00
2013-8-5,68.0,54.6,44.8,39.7,35.3,31.0,74,50,28,30.15,30.03,9,5,15,0.00
2013-8-6,74.5,61.9,45.0,39.2,35.2,30.6,78,41,21,30.09,29.86,14,7,23,0.00
2013-8-7,71.2,60.0,53.6,54.4,43.6,36.4,80,57,34,29.98,29.89,7,2,11,0.00
2013-8-8,62.1,55.2,32.0,52.0,41.0,32.8,98,60,35,30.03,0.00,9,6,18,0.17
2013-8-9,73.2,58.2,46.4,42.3,38.1,31.3,82,51,24,30.15,30.03,5,3,10,0.00
2013-8-10,80.8,60.9,52.7,46.7,36.9,32.7,77,42,19,30.09,29.98,9,6,13,0.00
2013-8-11,80.6,70.5,56.8,46.8,38.4,28.8,68,34,17,30.12,0.00,5,2,10,0.00
2013-8-12,66.9,54.8,32.0,49.0,45.8,33.8,85,73,33,29.98,0.00,16,2,26,0.00
2013-8-13,63.5,54.1,48.0,35.1,30.2,23.3,53,41,28,30.07,29.92,10,5,17,0.00
2013-8-14,73.4,67.5,62.4,31.1,28.7,25.8,28,23,19,30.01,29.83,9,6,15,0.00
2013-8-15,69.3,61.0,47.3,40.3,26.8,16.8,76,29,15,30.24,29.86,9,6,17,0.00
2013-8-16,67.1,60.7,32.0,49.4,47.5,38.8,70,60,44,30.09,30.03,7,5,14,0.00
2013-8-17,75.6,57.8,50.9,51.3,46.9,27.9,86,70,25,30.03,29.80,16,4,29,0.00
2013-8-18,73.8,53.7,43.3,41.0,34.9,31.3,75,53,22,30.12,29.95,10,2,13,3.98
2013-8-19,75.6,66.4,57.2,32.4,27.6,23.0,35,24,15,29.98,29.74,13,8,22,0.00
2013-8-20,69.4,56.1,47.1,29.1,23.3,12.7,46,30,15,30.07,29.92,10,6,18,0.00
2013-8-21,55.9,48.4,32.0,39.7,35.5,23.7,81,60,43,30.07,29.98,2,0,4,0.00
2013-8-22,68.9,58.6,46.2,36.0,31.1,26.6,61,37,22,30.07,29.89,12,7,19,0.00
2013-8-23,71.2,60.4,54.1,36.8,33.5,28.9,50,37,23,30.01,29.86,14,8,27,0.00
2013-8-24,75.7,62.7,52.7,48.1,39.9,31.8,82,46,22,30.27,30.01,8,5,14,0.00
2013-8-25,79.0,53.6,45.3,58.5,45.6,30.3,98,82,17,30.36,30.15,9,1,13,0.00
2013-8-26,65.8,57.6,52.3,48.9,46.5,42.7,86,68,43,30.24,30.15,5,1,10,0.00
2013-8-27,82.9,62.1,47.7,62.4,45.5,34.5,98,66,19,30.27,30.09,7,2,10,0.00
2013-8-28,78.6,61.2,46.6,61.4,45.1,32.0,98,66,21,30.30,30.15,8,2,17,0.00
2013-8-29,79.3,63.3,49.3,65.6,50.1,40.5,98,69,28,30.30,30.12,8,2,17,0.00
2013-8-30,84.4,69.9,59.4,56.0,48.4,36.1,81,52,20,30.15,29.92,11,5,19,0.00
2013-8-31,84.7,57.8,50.7,55.4,43.9,22.8,85,64,13,30.30,30.03,6,1,12,0.00
2013-9-1,79.3,63.0,49.1,63.8,49.3,41.8,98,68,28,30.45,30.33,6,2,11,0.00
2013-9-2,81.9,63.0,48.9,64.5,48.8,37.2,98,69,22,30.54,30.42,6,2,11,0.00
2013-9-3,61.5,52.3,49.3,61.0,51.4,48.7,98,97,91,30.60,30.51,0,0,2,0.00
2013-9-4,82.0,73.1,60.4,64.8,47.2,36.7,98,42,22,30.60,30.42,8,4,15,0.00
2013-9-5,88.5,62.9,32.0,63.2,48.5,30.7,98,68,15,30.45,30.27,8,2,11,0.00
2013-9-6,82.9,68.4,56.8,64.7,45.8,37.2,95,48,21,30.36,30.24,7,2,12,0.00
2013-9-7,90.0,66.6,57.7,67.6,51.6,28.0,98,69,13,30.30,30.09,10,2,20,0.00
2013-9-8,73.8,67.3,32.0,65.8,59.4,51.5,97,76,50,30.33,0.00,6,3,14,0.00
2013-9-9,82.2,68.0,64.0,68.3,63.1,48.6,98,87,34,30.30,29.92,6,2,10,0.00
2013-9-10,87.1,81.4,67.6,41.9,34.4,28.3,37,19,13,29.83,0.00,18,14,29,0.00
2013-9-11,82.4,64.9,50.7,49.9,34.3,19.5,81,37,12,29.98,29.74,8,3,13,0.00
2013-9-12,81.3,60.6,49.3,54.2,37.0,24.5,82,45,14,30.07,29.86,12,2,26,0.00
2013-9-13,69.6,63.2,60.1,43.7,40.2,36.4,53,43,34,30.15,0.00,7,4,13,0.00
2013-9-14,83.3,62.7,57.7,62.7,54.6,40.3,98,79,23,30.07,29.80,12,4,25,0.33
2013-9-15,72.7,61.6,56.3,60.5,54.6,43.9,98,81,40,30.15,30.01,9,3,17,0.00
2013-9-16,67.3,65.0,32.0,63.9,57.2,51.3,98,77,58,30.07,29.74,8,4,17,0.25
2013-9-17,73.6,64.0,59.7,62.6,56.8,43.9,98,81,38,29.68,29.56,13,8,29,0.21
2013-9-18,80.4,65.4,59.7,58.5,51.9,30.6,92,68,20,29.71,29.59,12,8,22,0.00
2013-9-19,75.6,66.0,32.0,38.7,29.7,23.6,38,24,15,29.83,0.00,11,4,13,0.00
2013-9-20,78.6,64.4,50.4,38.4,31.6,18.7,55,31,13,29.95,29.71,12,6,20,0.00
2013-9-21,74.7,57.2,46.0,54.4,39.8,30.9,98,58,22,30.03,29.95,8,2,15,0.00
2013-9-22,83.8,57.9,47.5,61.7,49.3,35.1,98,80,19,30.03,29.92,7,1,13,0.00
2013-9-23,90.1,63.3,52.7,63.4,50.9,24.4,98,75,10,30.01,29.71,9,2,15,0.00
2013-9-24,93.4,66.6,59.5,60.8,40.4,25.6,95,43,11,29.83,29.56,6,2,13,0.00
2013-9-25,94.3,82.5,32.0,46.6,37.7,24.8,33,22,9,29.89,0.00,8,5,14,0.00
2013-9-26,94.8,72.4,55.9,56.0,38.3,21.6,93,39,9,29.83,29.62,20,4,32,0.00
2013-9-27,80.4,59.2,47.7,43.9,32.0,19.7,71,39,12,30.21,30.03,7,2,15,0.00
2013-9-28,90.5,64.8,50.4,57.9,42.9,18.4,98,62,10,30.03,29.74,14,4,25,0.00
2013-9-29,80.1,63.5,52.5,55.8,35.6,25.1,77,38,15,30.09,29.92,9,2,13,0.00
2013-9-30,88.5,61.0,50.0,62.5,48.3,24.1,98,75,10,30.09,29.86,11,1,17,0.00
2013-10-1,90.5,69.0,62.2,66.6,38.6,30.6,89,34,19,29.95,29.65,16,5,30,0.04
2013-10-2,80.2,62.9,49.6,55.8,39.6,21.9,95,48,12,30.09,29.80,15,3,21,0.00
2013-10-3,74.3,62.5,53.4,52.6,36.6,25.8,84,39,19,30.18,29.77,8,4,18,0.12
2013-10-4,73.0,59.8,50.2,53.8,39.6,30.5,98,51,23,30.27,30.15,10,4,20,0.00
2013-10-5,89.2,63.4,47.5,62.6,44.8,24.2,98,65,10,30.21,29.89,9,3,15,0.00
2013-10-6,96.6,66.4,52.2,57.4,42.0,22.6,98,56,9,29.98,29.62,10,3,17,0.00
2013-10-7,75.0,70.1,32.0,47.9,43.0,34.0,45,37,32,29.92,0.00,12,8,24,0.00
2013-10-8,79.5,65.6,56.5,61.5,50.7,36.2,98,65,24,30.18,29.95,10,3,24,0.00
2013-10-9,90.3,67.8,48.7,59.5,42.4,22.3,98,56,10,30.18,29.92,8,3,13,0.00
2013-10-10,92.8,74.7,61.7,39.8,31.7,23.6,37,22,9,29.98,29.62,15,6,24,0.00
2013-10-11,83.1,69.8,62.4,63.6,51.7,28.5,93,57,14,30.07,29.62,11,6,22,0.00
2013-10-12,91.2,63.4,54.0,68.5,55.3,30.5,98,81,15,30.09,29.77,7,1,15,0.00
2013-10-13,97.0,90.4,32.0,58.1,35.3,24.9,22,14,8,29.65,0.00,23,17,40,0.00
2013-10-14,72.0,63.6,57.6,64.2,42.2,28.5,98,51,23,30.15,29.71,10,5,21,0.29
2013-10-15,83.1,63.9,45.9,50.9,32.5,20.4,97,41,11,30.30,30.09,8,3,14,0.00
2013-10-16,87.3,66.9,47.3,56.0,35.3,21.9,98,44,11,30.21,29.92,11,4,17,0.00
2013-10-17,89.2,86.6,84.9,41.6,39.8,38.2,21,19,18,29.77,29.71,20,16,32,0.00
2013-10-18,72.5,66.1,56.7,45.8,35.9,23.4,67,33,24,30.42,30.24,8,5,14,0.00
2013-10-19,78.1,60.1,48.4,61.5,48.3,31.4,98,74,20,30.45,30.24,9,2,17,0.00
2013-10-20,92.3,71.8,56.5,68.1,55.3,41.1,98,63,18,30.30,30.01,10,3,16,0.00
2013-10-21,101.5,77.7,59.2,70.4,50.9,25.2,98,57,7,30.09,29.86,8,3,15,0.00
2013-10-22,85.8,72.5,66.6,70.1,60.8,47.9,98,70,36,30.03,29.89,7,3,16,0.00
2013-10-23,97.3,90.3,69.8,56.7,40.8,22.6,59,21,8,29.86,29.59,18,9,27,0.00
2013-10-24,71.4,61.9,58.1,62.2,57.5,42.3,96,86,39,29.92,29.86,3,1,6,0.00
2013-10-25,81.1,64.5,50.0,47.9,28.1,18.3,55,28,12,30.27,30.12,8,3,15,0.00
2013-10-26,77.4,59.4,51.4,55.4,46.4,19.5,98,70,13,30.24,30.12,10,2,27,0.00
2013-10-27,81.7,63.3,54.9,65.7,54.1,35.5,98,77,22,30.27,30.15,9,2,17,0.00
2013-10-28,84.9,70.6,60.3,67.3,54.9,44.3,98,65,26,30.24,29.92,8,3,14,0.00
2013-10-29,91.8,68.7,59.4,65.7,55.5,41.6,98,69,19,30.07,29.71,13,4,30,1.58
2013-10-30,73.0,64.8,32.0,58.8,50.0,38.0,98,64,29,30.21,30.03,9,5,19,0.00
2013-10-31,77.9,64.6,51.4,64.3,49.8,42.2,98,66,30,30.24,30.09,9,3,17,0.00
2013-11-1,77.9,68.4,61.0,63.5,54.0,46.3,95,63,35,30.33,30.15,8,4,15,0.00
2013-11-2,85.5,61.8,55.9,68.5,58.6,45.1,98,92,26,30.18,30.07,8,1,13,0.00
2013-11-3,100.9,70.1,59.5,71.6,55.5,24.6,98,75,7,30.09,29.71,14,2,32,0.00
2013-11-4,68.0,62.9,32.0,45.7,36.4,31.2,44,36,29,30.39,0.00,12,8,33,0.00
2013-11-5,73.6,63.9,57.6,50.3,40.8,33.4,68,44,31,30.42,30.33,10,5,20,0.00
2013-11-6,77.7,64.3,50.9,63.4,48.2,40.2,98,64,28,30.36,30.09,9,3,15,0.00
2013-11-7,94.3,70.8,52.9,65.6,51.5,40.5,98,60,16,30.12,29.89,10,2,17,0.00
2013-11-11,67.5,65.8,64.6,66.9,65.2,61.6,98,98,82,30.03,29.98,10,4,13,2.08
2013-11-12,81.3,67.0,60.8,72.7,61.4,50.2,98,86,38,30.01,29.86,7,2,12,0.24
2013-11-13,90.7,71.8,58.8,75.4,55.2,36.9,98,67,18,30.01,29.86,9,2,17,0.00
2013-11-14,87.4,71.5,58.3,63.3,50.0,37.5,98,54,18,30.03,29.86,9,3,17,0.00
2013-11-15,74.8,63.0,60.6,66.2,60.8,53.3,98,93,48,30.01,29.95,8,1,15,0.04
2013-11-16,76.3,64.5,59.0,65.2,57.5,43.5,98,82,34,30.03,29.95,10,4,20,0.95
2013-11-17,62.1,60.5,58.6,61.5,59.9,58.1,98,98,96,30.01,29.98,9,5,20,2.74
2013-11-18,72.0,62.8,60.6,71.1,61.8,54.7,98,97,59,29.98,29.77,12,8,30,2.37
2013-11-19,79.3,67.4,59.9,68.0,60.4,51.5,98,82,43,29.89,29.80,9,4,23,0.00
2013-11-20,79.7,71.0,32.0,69.0,63.7,55.7,98,76,47,29.89,0.00,7,4,14,0.00
2013-11-21,81.9,72.9,63.7,74.6,62.8,55.5,98,75,42,29.92,29.80,13,4,24,0.00
2013-11-22,76.3,69.7,66.0,71.9,67.6,65.4,98,93,77,29.89,29.68,12,6,27,0.62
2013-11-23,79.9,66.8,61.2,71.7,65.5,56.7,98,96,56,29.74,29.56,8,2,14,0.41
2013-11-26,74.5,67.8,61.0,49.1,44.7,41.3,65,44,33,30.09,0.00,9,5,23,0.17
2013-11-27,84.9,67.9,54.3,62.0,50.1,39.6,98,62,22,30.12,29.98,7,2,12,0.00
2013-11-28,95.9,73.8,56.5,68.2,54.4,31.3,98,62,11,30.03,29.62,7,3,12,0.00
2013-11-29,76.8,69.0,61.9,71.2,64.1,54.6,98,86,49,29.98,29.50,9,4,17,0.83
2013-11-30,74.7,63.7,58.5,64.7,56.3,44.4,98,80,37,30.24,29.98,10,3,23,0.33
2013-12-1,78.6,61.9,32.0,68.2,56.2,46.4,98,85,35,30.33,0.00,8,1,15,0.00
2013-12-2,82.6,69.6,56.8,67.4,52.3,40.8,98,60,24,30.30,30.09,8,3,13,0.00
2013-12-3,83.8,63.8,55.2,69.7,56.7,39.7,98,83,23,30.12,29.92,9,2,18,0.00
2013-12-4,88.9,81.9,32.0,59.9,51.1,43.2,40,33,27,29.53,29.47,5,4,14,0.00
2013-12-5,88.5,76.3,59.7,78.2,53.6,24.9,98,54,11,29.77,29.39,16,6,31,0.04
2013-12-6,79.0,66.2,56.5,45.7,32.8,19.5,59,31,12,30.07,29.80,10,6,17,0.00
2013-12-7,81.5,62.2,52.9,64.4,52.1,35.2,98,76,22,30.21,30.09,7,2,13,0.00
2013-12-8,86.0,79.6,32.0,53.5,48.3,38.8,42,33,22,30.12,0.00,9,6,17,0.00
2013-12-9,101.5,80.3,61.3,66.2,51.4,32.6,98,47,10,29.95,29.59,9,4,14,0.00
2013-12-10,101.1,84.9,73.2,72.0,51.0,33.7,96,34,10,29.77,29.56,18,8,27,0.00
2013-12-11,87.4,74.3,67.8,72.6,63.9,52.0,98,75,33,29.86,29.68,8,4,15,0.00
2013-12-12,82.9,73.6,65.7,69.2,61.3,51.6,98,69,39,29.92,29.80,10,4,19,0.00
2013-12-13,94.5,74.5,61.9,73.3,61.9,53.3,98,72,27,29.95,29.83,10,2,17,0.00
2013-12-15,83.3,74.1,63.1,71.4,59.6,50.5,98,64,34,30.15,30.03,8,4,15,0.00
2013-12-16,81.0,72.9,64.2,70.5,60.4,52.1,98,69,40,30.21,30.09,10,4,17,0.00
2013-12-17,85.1,71.8,60.4,74.3,58.8,47.1,98,70,32,30.21,30.09,10,3,19,0.00
2013-12-18,85.1,73.7,62.8,73.9,57.6,47.5,98,63,30,30.30,30.15,8,4,14,0.00
2013-12-19,84.4,74.1,62.1,70.9,58.4,52.2,98,62,35,30.24,30.07,10,4,20,0.00
2013-12-20,112.5,84.8,63.3,70.0,53.7,32.8,98,48,7,30.09,29.83,8,3,22,0.00
2013-12-21,76.1,75.7,75.4,62.9,62.3,61.8,64,63,62,29.95,29.95,6,3,10,0.00
2013-12-22,81.3,80.4,79.7,57.1,56.2,55.4,45,44,42,29.77,29.74,5,3,8,0.00
2013-12-23,98.4,84.2,72.0,74.1,53.4,37.6,98,41,13,29.92,29.62,12,6,25,0.00
2013-12-24,72.5,68.9,66.0,71.2,66.6,58.7,98,93,65,30.15,29.89,8,5,15,0.21
2013-12-25,71.2,68.9,66.7,70.6,68.3,66.2,98,98,96,30.12,29.92,6,2,11,0.25
2013-12-26,85.6,73.6,67.8,71.7,64.4,54.1,98,77,42,29.89,29.80,10,5,23,0.09
2013-12-27,83.8,76.6,69.6,67.5,59.0,52.9,93,57,39,29.95,0.00,8,5,17,0.00
2013-12-28,85.6,70.7,63.7,71.8,64.1,55.2,98,83,40,29.95,29.68,10,2,18,0.00
2013-12-29,77.0,70.7,32.0,72.8,66.3,47.7,98,88,40,30.03,29.56,12,5,34,0.00
2013-12-30,80.8,68.5,62.1,63.0,53.0,41.4,94,62,29,30.07,29.86,8,2,16,0.00
2014-1-1,86.2,78.7,32.0,63.6,59.4,52.8,65,52,36,29.95,29.80,10,6,20,0.00
2014-1-2,104.7,79.9,71.6,74.9,62.3,25.6,98,66,8,29.74,29.56,10,3,22,0.00